TimeEDT,TemperatureF,Dew PointF,Humidity,Sea Level PressureIn,VisibilityMPH,Wind Direction,Wind SpeedMPH,Gust SpeedMPH,PrecipitationIn,Events,Conditions,WindDirDegrees,DateUTC
12:53 AM,54.0,45.0,72,29.99,10.0,NW,4.6,-,N/A,,Partly Cloudy,310,2013-09-23 04:53:00
1:53 AM,55.9,44.1,64,29.99,10.0,NNW,4.6,-,N/A,,Overcast,340,2013-09-23 05:53:00
2:53 AM,55.9,44.1,64,30.01,10.0,North,3.5,-,N/A,,Overcast,350,2013-09-23 06:53:00
3:53 AM,55.0,44.1,67,30.02,10.0,NNW,5.8,-,N/A,,Overcast,340,2013-09-23 07:53:00
4:53 AM,55.0,42.1,62,30.03,10.0,North,4.6,-,N/A,,Overcast,350,2013-09-23 08:53:00
5:53 AM,54.0,42.1,64,30.04,10.0,NNW,3.5,-,N/A,,Overcast,340,2013-09-23 09:53:00
6:53 AM,54.0,41.0,62,30.06,10.0,NNW,4.6,-,N/A,,Overcast,340,2013-09-23 10:53:00
7:53 AM,55.0,41.0,59,30.09,10.0,NW,4.6,-,N/A,,Overcast,320,2013-09-23 11:53:00
8:53 AM,55.9,42.1,60,30.09,10.0,NNW,8.1,-,N/A,,Overcast,330,2013-09-23 12:53:00
9:53 AM,55.9,39.9,55,30.12,10.0,NNE,9.2,-,N/A,,Overcast,20,2013-09-23 13:53:00
10:53 AM,55.9,39.0,53,30.12,10.0,North,8.1,-,N/A,,Overcast,360,2013-09-23 14:53:00
11:53 AM,57.0,39.9,53,30.13,10.0,NNW,9.2,-,N/A,,Overcast,340,2013-09-23 15:53:00
12:53 PM,61.0,42.1,50,30.11,10.0,NW,11.5,-,N/A,,Mostly Cloudy,320,2013-09-23 16:53:00
1:53 PM,63.0,41.0,45,30.09,10.0,North,13.8,32.2,N/A,,Scattered Clouds,360,2013-09-23 17:53:00
2:53 PM,63.0,41.0,45,30.08,10.0,NNW,9.2,-,N/A,,Clear,340,2013-09-23 18:53:00
3:53 PM,64.9,42.1,43,30.06,10.0,NNW,9.2,-,N/A,,Clear,340,2013-09-23 19:53:00
4:53 PM,64.0,41.0,43,30.06,10.0,North,8.1,-,N/A,,Clear,10,2013-09-23 20:53:00
5:53 PM,63.0,41.0,45,30.06,10.0,North,9.2,-,N/A,,Clear,350,2013-09-23 21:53:00
6:53 PM,61.0,42.1,50,30.07,10.0,NNW,4.6,-,N/A,,Clear,330,2013-09-23 22:53:00
7:53 PM,55.0,43.0,64,30.08,10.0,Calm,Calm,-,N/A,,Clear,0,2013-09-23 23:53:00
8:53 PM,55.0,42.1,62,30.09,10.0,NW,3.5,-,N/A,,Clear,320,2013-09-24 00:53:00
9:53 PM,50.0,42.1,74,30.10,10.0,Calm,Calm,-,N/A,,Clear,0,2013-09-24 01:53:00
10:53 PM,48.0,43.0,83,30.11,10.0,Calm,Calm,-,N/A,,Clear,0,2013-09-24 02:53:00
11:53 PM,46.0,42.1,86,30.11,10.0,Calm,Calm,-,N/A,,Clear,0,2013-09-24 03:53:00